Wind_Speed
17 20 22 31 35 37 41 45 42 42 44 44 44 48 50 51 52 53 52 54 51 50 58 76 90 88 88 86 81 79 70 60 62 63 64 61 64 63 63 62 63 62 60 59
14 19 23 29 31 36 42 44 47 44 45 46 45 48 51 52 54 56 57 61 51 47 51 63 77 93 86 87 87 89 78 67 61 64 63 66 63 65 65 65 66 66 64 62
14 17 21 27 28 33 37 41 41 44 46 49 48 47 49 53 58 59 63 67 59 50 45 51 62 87 87 72 84 84 83 80 66 63 67 68 66 66 67 66 64 64 64 64
14 18 20 23 27 31 36 39 42 43 46 49 50 51 52 53 57 63 68 70 63 51 42 45 50 70 95 80 66 88 86 83 82 61 64 68 63 66 66 63 61 62 63 63
17 20 22 25 28 31 36 40 43 45 47 48 51 51 55 56 58 62 66 66 61 55 44 39 43 44 81 101 70 70 91 84 90 83 59 64 73 71 66 66 63 64 64 65
20 24 25 28 31 33 38 43 44 47 49 49 49 51 54 58 62 61 60 56 55 56 55 44 39 41 46 82 104 69 84 94 88 95 81 50 68 71 63 63 66 65 63 63
23 25 27 29 31 35 39 44 48 50 51 49 50 49 52 54 60 63 59 51 47 51 52 54 43 38 42 46 82 90 78 93 91 87 94 88 50 50 71 60 61 62 63 62
26 28 29 31 34 39 41 45 50 58 54 52 50 48 48 51 58 61 61 55 55 55 53 53 51 40 40 46 50 92 89 84 100 95 90 84 73 64 69 69 54 55 62 61
28 27 29 31 35 41 44 46 49 53 54 54 53 47 48 51 55 59 56 50 49 52 52 51 50 46 39 40 50 72 91 92 82 93 104 91 79 70 67 60 70 50 62 60
28 27 29 32 35 41 44 48 51 53 55 55 54 48 47 51 54 57 60 51 47 48 49 48 50 51 46 42 40 55 71 81 95 75 82 95 92 81 68 64 60 67 50 59
30 28 31 35 37 42 44 46 50 52 52 56 59 52 49 49 53 56 59 52 48 49 53 48 52 60 53 46 43 42 63 69 68 93 78 76 85 86 63 74 72 62 66 57
30 30 31 35 38 43 44 46 49 53 52 53 56 50 49 49 51 55 59 52 48 49 55 52 57 64 64 47 41 40 48 67 66 62 94 79 77 80 71 69 73 54 59 64
31 30 34 37 40 44 44 44 47 52 51 50 51 52 44 48 49 50 57 55 48 50 53 53 58 71 55 39 36 36 37 54 67 63 61 90 77 83 71 67 71 67 66 63
32 31 34 37 36 44 42 43 45 50 51 48 42 47 44 41 48 50 55 56 49 50 49 52 56 58 55 35 32 32 34 36 60 64 58 59 84 78 88 73 73 69 71 63
33 34 35 37 35 41 41 42 44 52 52 48 45 48 50 43 47 52 56 58 54 50 50 54 55 56 55 44 33 33 29 32 44 59 57 53 56 79 85 69 75 73 70 68
35 35 36 37 37 41 40 41 47 49 44 46 46 47 49 40 45 51 53 56 56 48 50 52 55 58 58 53 41 33 29 29 30 54 57 56 54 52 66 79 64 80 51 66
38 34 39 38 39 39 36 41 46 45 40 43 46 49 49 39 41 49 51 54 55 47 50 51 55 57 57 47 42 30 26 26 25 40 55 55 54 48 47 55 74 60 54 57
39 37 42 40 37 37 34 44 43 39 36 43 47 49 49 40 36 46 48 51 53 47 49 51 52 54 56 48 38 34 18 18 21 24 47 55 56 56 45 42 53 66 52 53
40 40 42 40 36 35 36 39 40 35 34 43 47 48 49 38 31 38 43 48 52 49 47 50 48 50 52 48 38 31 22 15 14 17 28 49 46 54 53 40 39 44 53 46
39 41 40 37 38 39 35 40 35 32 31 39 40 42 43 38 32 33 38 43 47 47 46 49 45 51 47 52 43 26 18 12 16 19 14 29 45 38 46 48 33 44 43 45
41 41 38 35 37 38 39 39 38 33 34 36 39 42 44 38 36 32 33 38 43 47 42 46 38 46 45 44 42 33 14 8 5 8 11 18 26 28 27 39 30 30 40 42
42 40 37 36 36 38 37 39 37 33 34 35 37 40 43 41 32 30 30 34 38 42 40 41 36 42 48 39 35 30 27 24 17 14 11 22 21 12 10 16 26 20 21 32
43 38 38 35 33 34 36 37 34 34 31 32 34 36 40 42 32 28 25 28 33 37 41 36 33 35 41 42 35 31 24 17 18 19 20 20 19 14 10 6 7 3 5 18
41 37 37 34 25 35 33 36 36 39 32 30 30 29 38 37 34 28 25 23 27 33 35 37 32 28 31 38 39 30 25 24 10 12 9 21 17 19 14 8 3 4 0 7
40 39 34 36 28 39 33 34 35 35 29 28 26 27 34 36 33 30 26 23 23 26 30 31 35 31 26 26 31 35 27 21 17 22 14 17 21 18 18 12 6 5 5 1
39 36 32 36 36 37 28 30 30 30 30 29 31 29 31 36 34 32 30 26 22 22 24 27 28 30 32 27 21 23 27 27 17 12 13 11 13 21 21 18 16 16 13 10
Wind_Direction
358 0 351 4 358 7 8 2 340 330 327 322 323 323 321 317 316 313 314 321 302 284 257 244 237 234 238 238 243 250 240 232 241 238 235 237 237 234 234 235 236 236 239 241
357 356 358 352 358 360 4 1 359 340 328 326 328 326 322 324 323 322 328 334 318 293 266 249 237 231 228 238 237 241 245 231 229 232 237 235 237 236 232 231 234 235 235 238
330 336 342 348 351 354 356 355 351 351 341 328 329 327 328 332 333 333 338 340 335 312 280 256 242 233 225 229 235 236 237 235 228 226 233 235 234 235 235 233 234 236 237 237
297 317 332 341 342 344 349 351 348 344 334 331 329 332 330 337 341 342 342 345 342 329 305 277 247 233 227 223 228 231 232 232 230 226 225 229 229 231 234 232 234 233 235 236
290 302 311 326 333 335 336 342 345 340 336 329 329 333 334 337 344 345 345 347 348 348 329 304 269 244 234 223 221 227 221 226 231 233 228 224 232 235 235 232 231 232 232 232
287 291 301 313 327 333 335 334 337 338 337 334 331 335 335 339 344 344 345 348 349 352 353 331 306 271 252 230 224 229 231 221 224 232 228 220 223 225 225 234 234 230 229 234
293 297 304 315 322 329 331 334 331 332 336 337 331 335 338 341 342 342 342 345 346 347 347 350 322 299 275 260 229 228 220 229 219 224 231 234 218 227 224 225 233 233 231 229
304 302 303 313 321 327 329 329 329 328 331 339 331 334 338 341 342 343 342 340 339 338 340 341 342 318 297 267 247 224 224 218 224 218 223 223 223 232 229 226 229 233 230 229
302 305 306 316 321 326 329 329 327 325 328 335 333 333 334 341 342 343 346 337 334 333 333 334 332 333 315 298 256 233 235 226 219 229 222 219 224 229 225 230 225 229 231 240
300 305 307 314 320 324 328 329 328 326 330 334 334 338 333 338 339 342 345 340 338 339 335 333 331 326 318 305 286 250 244 243 232 209 218 224 225 225 230 223 227 227 229 230
299 301 307 314 319 323 327 327 326 325 333 333 331 343 330 335 338 339 343 341 339 337 334 331 332 328 316 301 293 272 244 248 247 230 209 207 220 215 220 230 236 244 234 234
295 300 306 312 318 320 325 327 324 328 333 333 330 338 329 332 337 337 340 344 336 337 335 335 331 325 319 296 290 284 260 244 247 246 234 217 208 216 221 225 235 225 239 234
293 301 305 310 315 321 323 324 325 327 333 333 332 331 330 330 336 335 337 343 338 337 338 332 335 334 324 297 284 282 279 250 242 242 244 237 215 209 210 217 229 226 235 237
290 292 300 305 314 319 320 324 327 329 330 328 339 334 323 331 333 333 338 341 334 336 337 338 339 341 342 315 288 280 269 269 241 239 242 243 243 212 218 211 219 224 233 234
289 291 294 298 313 316 319 325 328 332 329 330 335 334 328 332 332 333 339 340 337 337 340 337 339 342 340 338 287 278 275 267 248 235 235 241 238 244 220 211 214 219 225 232
290 295 296 304 312 313 320 326 333 331 332 332 335 332 327 332 332 331 340 339 340 338 341 340 344 342 340 343 336 280 270 257 258 234 233 233 239 241 245 241 218 218 223 225
286 290 297 308 310 311 325 329 336 329 331 330 333 332 331 328 333 329 339 340 342 340 343 343 344 343 343 337 347 330 272 258 253 236 232 234 230 232 238 247 240 225 222 219
285 291 295 305 307 311 329 332 336 329 332 334 335 336 330 326 334 329 339 341 344 346 347 345 349 345 343 340 335 342 314 260 246 248 230 233 233 227 230 241 249 234 221 216
284 288 294 301 303 311 328 333 334 329 335 334 336 339 330 322 330 330 341 341 348 350 354 353 355 350 347 346 338 328 316 274 246 254 237 231 233 233 229 229 232 246 237 230
282 285 291 295 300 310 320 331 328 325 331 337 339 337 338 316 321 336 344 346 352 353 354 353 358 356 351 1 352 334 315 313 259 247 252 229 226 234 236 229 227 241 243 231
283 284 287 290 297 312 313 327 328 323 330 334 339 343 341 320 319 336 345 350 355 0 359 357 5 1 3 1 11 16 9 334 284 238 242 190 197 226 243 240 227 229 246 238
276 281 282 285 294 309 314 324 327 319 324 324 331 343 344 332 317 330 342 346 354 2 1 360 7 15 16 12 6 19 32 55 80 87 141 155 155 173 216 243 237 243 223 241
276 275 279 284 297 301 308 321 321 315 322 322 326 338 347 338 311 319 337 342 349 359 9 5 9 14 12 28 21 9 19 58 74 88 104 125 137 151 157 147 126 173 270 259
272 270 271 281 302 293 306 310 309 308 321 319 328 337 348 343 320 310 324 336 344 352 3 11 8 356 3 21 36 32 30 27 29 81 118 142 138 136 139 164 142 104 175 256
266 264 271 280 292 292 301 306 301 303 318 316 333 334 347 347 327 305 309 322 336 345 350 4 11 9 4 22 34 41 42 47 48 55 77 138 133 146 138 132 126 163 118 156
264 266 266 275 283 292 296 300 294 302 315 311 322 331 337 340 336 309 299 306 320 336 343 349 2 6 14 14 34 50 55 59 67 99 98 128 157 147 136 130 145 176 187 182
Height
5797 5795 5793 5789 5785 5782 5777 5773 5767 5759 5754 5750 5745 5735 5727 5721 5713 5705 5697 5685 5672 5665 5661 5664 5665 5673 5677 5688 5701 5713 5721 5726 5731 5732 5734 5737 5745 5750 5756 5762 5768 5772 5776 5779
5793 5789 5787 5782 5778 5775 5771 5765 5760 5754 5745 5743 5736 5729 5718 5707 5698 5689 5678 5665 5651 5641 5636 5637 5643 5651 5661 5669 5678 5688 5705 5710 5714 5717 5722 5725 5730 5734 5738 5743 5751 5755 5760 5765
5788 5785 5781 5777 5774 5770 5764 5758 5752 5745 5738 5732 5727 5723 5709 5699 5685 5674 5663 5649 5632 5618 5615 5613 5618 5628 5642 5647 5656 5666 5679 5693 5692 5702 5707 5712 5715 5718 5722 5729 5735 5744 5749 5753
5782 5779 5775 5772 5769 5765 5760 5753 5745 5737 5731 5720 5713 5709 5699 5689 5677 5661 5648 5635 5621 5608 5600 5595 5596 5602 5613 5627 5632 5643 5657 5670 5678 5682 5692 5698 5703 5704 5710 5714 5720 5725 5732 5739
5774 5770 5768 5766 5762 5758 5754 5746 5739 5732 5724 5715 5703 5696 5683 5675 5667 5653 5638 5624 5611 5601 5590 5585 5580 5583 5592 5600 5613 5619 5630 5644 5658 5662 5672 5682 5688 5694 5697 5700 5705 5709 5714 5720
5766 5764 5762 5759 5754 5749 5745 5739 5731 5724 5717 5709 5694 5685 5678 5664 5654 5645 5633 5621 5610 5599 5587 5578 5572 5569 5570 5582 5593 5603 5611 5618 5628 5641 5651 5661 5668 5679 5684 5687 5691 5696 5701 5707
5759 5756 5753 5750 5746 5742 5736 5730 5724 5717 5710 5702 5689 5678 5669 5659 5648 5637 5625 5615 5606 5596 5586 5576 5566 5561 5557 5560 5570 5582 5587 5595 5608 5620 5629 5640 5649 5657 5669 5674 5679 5684 5688 5692
5753 5751 5746 5742 5737 5733 5728 5722 5713 5699 5694 5693 5687 5673 5662 5653 5643 5632 5619 5605 5595 5587 5580 5572 5564 5555 5551 5547 5551 5559 5560 5571 5583 5596 5607 5619 5630 5642 5650 5661 5664 5671 5677 5682
5747 5744 5739 5735 5730 5725 5719 5714 5709 5699 5692 5682 5678 5668 5656 5646 5637 5628 5616 5603 5593 5584 5575 5566 5560 5552 5544 5538 5537 5537 5538 5548 5561 5570 5582 5596 5610 5624 5634 5643 5653 5655 5665 5671
5741 5737 5732 5728 5723 5717 5710 5704 5697 5690 5678 5670 5667 5662 5646 5638 5631 5621 5611 5600 5589 5580 5571 5561 5552 5545 5538 5530 5523 5524 5520 5526 5537 5546 5561 5574 5589 5605 5617 5626 5636 5646 5651 5658
5734 5731 5727 5721 5717 5711 5705 5697 5690 5682 5676 5663 5650 5655 5639 5630 5621 5611 5602 5592 5580 5570 5561 5553 5545 5536 5527 5519 5513 5508 5510 5511 5518 5528 5538 5552 5567 5585 5596 5608 5620 5632 5639 5642
5727 5723 5720 5716 5711 5705 5697 5689 5682 5675 5670 5663 5650 5647 5636 5623 5613 5601 5594 5584 5574 5563 5553 5544 5534 5522 5509 5502 5499 5496 5494 5498 5503 5512 5522 5530 5547 5563 5577 5592 5604 5618 5622 5629
5719 5717 5712 5708 5706 5697 5691 5685 5675 5669 5665 5659 5646 5637 5629 5618 5610 5600 5588 5580 5568 5558 5548 5537 5525 5508 5488 5480 5482 5483 5482 5482 5487 5498 5508 5516 5527 5544 5558 5573 5589 5599 5609 5616
5711 5710 5706 5701 5698 5690 5684 5679 5668 5662 5657 5650 5639 5631 5624 5615 5604 5595 5585 5576 5565 5552 5541 5528 5516 5500 5481 5472 5470 5470 5471 5470 5474 5482 5494 5504 5512 5524 5542 5556 5571 5588 5596 5605
5705 5703 5699 5695 5691 5682 5678 5673 5662 5654 5649 5638 5631 5621 5614 5608 5599 5588 5579 5569 5558 5547 5534 5522 5509 5494 5480 5467 5460 5457 5459 5460 5462 5470 5479 5490 5499 5507 5522 5538 5557 5573 5579 5589
5698 5696 5692 5690 5687 5677 5674 5666 5657 5650 5643 5632 5623 5617 5605 5602 5593 5584 5576 5565 5553 5542 5530 5518 5504 5489 5475 5462 5451 5444 5446 5449 5451 5458 5466 5477 5489 5496 5507 5520 5537 5554 5563 5575
5691 5688 5684 5684 5680 5671 5669 5660 5652 5647 5639 5629 5619 5609 5603 5597 5591 5579 5572 5561 5549 5538 5526 5513 5499 5485 5471 5457 5447 5436 5434 5439 5443 5448 5456 5465 5477 5489 5499 5507 5519 5537 5550 5559
5683 5680 5676 5674 5672 5664 5661 5650 5647 5641 5634 5625 5614 5604 5596 5590 5587 5575 5568 5558 5547 5533 5523 5511 5498 5483 5468 5455 5445 5436 5430 5432 5436 5441 5448 5457 5467 5479 5490 5500 5508 5520 5536 5544
5675 5671 5668 5665 5662 5659 5654 5643 5640 5634 5631 5618 5611 5602 5594 5587 5583 5574 5566 5556 5543 5530 5521 5510 5497 5484 5469 5454 5443 5435 5429 5428 5431 5435 5440 5449 5460 5471 5481 5494 5503 5509 5523 5533
5667 5663 5661 5658 5653 5649 5644 5637 5635 5629 5624 5617 5609 5599 5590 5583 5578 5571 5564 5554 5544 5531 5521 5512 5499 5486 5471 5456 5442 5430 5425 5423 5425 5430 5435 5442 5456 5466 5474 5488 5497 5505 5512 5523
5656 5654 5651 5649 5645 5645 5635 5630 5628 5624 5620 5612 5605 5596 5586 5579 5572 5565 5560 5553 5543 5531 5523 5515 5502 5491 5476 5463 5450 5437 5426 5422 5422 5426 5432 5438 5451 5463 5472 5480 5492 5500 5508 5516
5646 5646 5643 5640 5638 5636 5625 5624 5623 5619 5613 5606 5600 5591 5583 5574 5569 5563 5558 5553 5545 5535 5525 5517 5506 5496 5482 5470 5459 5448 5439 5432 5428 5428 5433 5440 5450 5461 5472 5481 5487 5496 5503 5511
5637 5638 5634 5634 5632 5627 5619 5618 5616 5612 5607 5601 5594 5586 5580 5572 5566 5562 5557 5553 5546 5537 5527 5519 5510 5500 5490 5476 5466 5457 5449 5443 5440 5440 5443 5447 5455 5464 5474 5482 5487 5494 5500 5506
5627 5627 5626 5625 5629 5618 5615 5613 5611 5606 5602 5596 5589 5582 5575 5569 5562 5559 5555 5550 5545 5538 5529 5521 5513 5504 5496 5486 5474 5465 5458 5452 5451 5449 5450 5453 5460 5466 5474 5483 5490 5495 5499 5506
5617 5616 5620 5616 5618 5608 5610 5607 5604 5600 5595 5591 5584 5577 5571 5565 5558 5555 5551 5548 5543 5538 5532 5524 5517 5509 5502 5494 5484 5475 5467 5463 5461 5460 5458 5460 5467 5470 5476 5482 5490 5496 5500 5504
5606 5608 5608 5605 5605 5602 5603 5599 5596 5594 5588 5585 5580 5574 5567 5561 5556 5550 5547 5544 5541 5536 5532 5527 5520 5515 5508 5501 5494 5486 5478 5473 5471 5471 5472 5473 5474 5474 5478 5483 5490 5496 5501 5503